Time,TemperatureF,DewpointF,PressureIn,WindDirection,WindDirectionDegrees,WindSpeedMPH,WindSpeedGustMPH,Humidity,HourlyPrecipIn,Conditions,Clouds,dailyrainin,SoftwareType,DateUTC
2013-04-21 00:00:00,46.7,40.9,30.12,SSW,203,8.0,18.0,80,0.00,CLR,,0.00,WeatherDisplay:10.37,2013-04-20 23:00:00,
2013-04-21 00:15:00,46.7,40.9,30.11,SSW,200,9.0,18.0,80,0.00,CLR,,0.00,WeatherDisplay:10.37,2013-04-20 23:15:00,
2013-04-21 00:30:00,46.9,41.1,30.11,SW,216,8.0,17.0,80,0.00,CLR,,0.00,WeatherDisplay:10.37,2013-04-20 23:30:00,
2013-04-21 00:45:00,47.0,41.4,30.09,SW,216,14.0,21.0,81,0.00,CLR,,0.00,WeatherDisplay:10.37,2013-04-20 23:45:00,
2013-04-21 01:00:00,47.1,41.5,30.09,SW,223,16.0,23.0,81,0.00,CLR,,0.00,WeatherDisplay:10.37,2013-04-21 00:00:00,
2013-04-21 01:15:00,47.1,41.6,30.09,SW,230,10.0,22.0,81,0.00,CLR,,0.00,WeatherDisplay:10.37,2013-04-21 00:15:00,
2013-04-21 01:30:00,47.1,41.9,30.08,SW,218,15.0,22.0,82,0.00,CLR,,0.00,WeatherDisplay:10.37,2013-04-21 00:30:00,
2013-04-21 01:45:00,46.5,41.6,29.97,SW,218,13.0,21.0,83,0.00,CLR,,0.00,WeatherDisplay:10.37,2013-04-21 00:45:00,
2013-04-21 02:00:00,46.2,41.6,29.97,SW,221,12.0,19.0,84,0.00,CLR,,0.00,WeatherDisplay:10.37,2013-04-21 01:00:00,
2013-04-21 02:15:00,46.2,41.6,29.97,SW,221,12.0,22.0,84,0.00,CLR,,0.00,WeatherDisplay:10.37,2013-04-21 01:15:00,
2013-04-21 02:30:00,46.0,41.4,29.96,SW,219,12.0,20.0,84,0.00,CLR,,0.00,WeatherDisplay:10.37,2013-04-21 01:30:00,
2013-04-21 02:45:00,45.9,41.6,29.95,SW,221,12.0,21.0,85,0.00,CLR,,0.00,WeatherDisplay:10.37,2013-04-21 01:45:00,
2013-04-21 03:00:00,46.2,41.6,29.95,SW,216,12.0,21.0,84,0.00,CLR,,0.00,WeatherDisplay:10.37,2013-04-21 02:00:00,
2013-04-21 03:15:00,46.2,41.6,29.94,SW,215,14.0,22.0,84,0.00,CLR,,0.00,WeatherDisplay:10.37,2013-04-21 02:15:00,
2013-04-21 03:30:00,46.4,41.8,29.94,SSW,212,12.0,22.0,84,0.00,CLR,,0.00,WeatherDisplay:10.37,2013-04-21 02:30:00,
2013-04-21 03:45:00,46.6,42.3,29.93,SW,218,9.0,22.0,85,0.00,CLR,,0.00,WeatherDisplay:10.37,2013-04-21 02:45:00,
2013-04-21 04:00:00,46.6,42.3,29.93,SW,222,9.0,21.0,85,0.00,CLR,,0.00,WeatherDisplay:10.37,2013-04-21 03:00:00,
2013-04-21 04:15:00,46.7,42.4,29.92,SW,221,12.0,17.0,85,0.00,CLR,,0.00,WeatherDisplay:10.37,2013-04-21 03:15:00,
2013-04-21 04:30:00,47.4,43.1,29.92,SW,223,12.0,17.0,85,0.00,CLR,,0.00,WeatherDisplay:10.37,2013-04-21 03:30:00,
2013-04-21 04:45:00,48.6,43.7,29.91,SW,223,10.0,18.0,83,0.00,CLR,,0.00,WeatherDisplay:10.37,2013-04-21 03:45:00,
2013-04-21 05:00:00,49.0,43.7,29.91,SW,223,12.0,19.0,82,0.00,CLR,,0.00,WeatherDisplay:10.37,2013-04-21 04:00:00,
2013-04-21 05:15:00,48.8,43.9,29.91,SW,223,15.0,26.0,83,0.00,CLR,,0.00,WeatherDisplay:10.37,2013-04-21 04:15:00,
2013-04-21 05:30:00,48.5,43.9,29.90,SW,221,12.0,21.0,84,0.00,CLR,,0.00,WeatherDisplay:10.37,2013-04-21 04:30:00,
2013-04-21 06:15:00,45.1,41.8,29.91,West,262,12.0,21.0,88,0.00,CLR,,0.00,WeatherDisplay:10.37,2013-04-21 05:15:00,
2013-04-21 08:15:00,48.9,41.3,29.88,West,259,9.0,13.0,75,0.00,CLR,,0.00,WeatherDisplay:10.37,2013-04-21 07:15:00,
2013-04-21 08:30:00,48.1,42.5,29.88,West,270,8.0,16.0,81,0.00,CLR,,0.00,WeatherDisplay:10.37,2013-04-21 07:30:00,
2013-04-21 08:45:00,47.2,42.3,29.88,West,263,10.0,18.0,83,0.00,CLR,,0.00,WeatherDisplay:10.37,2013-04-21 07:45:00,
2013-04-21 09:00:00,46.9,42.6,29.88,West,259,7.0,17.0,85,0.00,CLR,,0.00,WeatherDisplay:10.37,2013-04-21 08:00:00,
2013-04-21 09:15:00,47.5,42.6,29.88,West,260,6.0,14.0,83,0.00,CLR,,0.00,WeatherDisplay:10.37,2013-04-21 08:15:00,
2013-04-21 09:30:00,47.5,42.3,29.88,West,264,9.0,16.0,82,0.00,CLR,,0.00,WeatherDisplay:10.37,2013-04-21 08:30:00,
2013-04-21 09:45:00,48.0,41.8,29.88,West,268,8.0,14.0,79,0.00,CLR,,0.00,WeatherDisplay:10.37,2013-04-21 08:45:00,
2013-04-21 10:00:00,49.4,41.1,29.87,West,262,9.0,17.0,73,0.01,RA,,0.01,WeatherDisplay:10.37,2013-04-21 09:00:00,
2013-04-21 10:15:00,50.4,41.3,29.86,West,260,6.0,15.0,71,0.00,CLR,,0.01,WeatherDisplay:10.37,2013-04-21 09:15:00,
2013-04-21 10:30:00,51.6,40.6,29.85,WSW,258,12.0,15.0,66,0.00,CLR,,0.01,WeatherDisplay:10.37,2013-04-21 09:30:00,
2013-04-21 10:45:00,51.4,39.6,29.86,West,259,10.0,17.0,64,0.00,CLR,,0.01,WeatherDisplay:10.37,2013-04-21 09:45:00,
2013-04-21 11:00:00,45.3,42.2,29.91,West,270,12.0,20.0,89,0.00,CLR,,0.00,WeatherDisplay:10.37,2013-04-21 10:00:00,
2013-04-21 11:15:00,52.3,38.0,29.85,WSW,252,10.0,18.0,58,0.00,CLR,,0.01,WeatherDisplay:10.37,2013-04-21 10:15:00,
2013-04-21 11:30:00,52.6,38.2,29.84,WSW,258,10.0,19.0,58,0.00,CLR,,0.01,WeatherDisplay:10.37,2013-04-21 10:30:00,
2013-04-21 11:45:00,46.1,42.1,29.91,WSW,256,8.0,16.0,86,0.00,CLR,,0.00,WeatherDisplay:10.37,2013-04-21 10:45:00,
2013-04-21 12:00:00,46.4,42.5,29.90,WSW,252,6.0,17.0,86,0.00,CLR,,0.00,WeatherDisplay:10.37,2013-04-21 11:00:00,
2013-04-21 12:15:00,47.0,42.4,29.90,West,260,12.0,17.0,84,0.00,CLR,,0.00,WeatherDisplay:10.37,2013-04-21 11:15:00,
2013-04-21 12:30:00,47.3,42.8,29.90,WSW,251,9.0,15.0,84,0.00,CLR,,0.00,WeatherDisplay:10.37,2013-04-21 11:30:00,
2013-04-21 12:45:00,48.1,42.2,29.89,West,259,12.0,17.0,80,0.00,CLR,,0.00,WeatherDisplay:10.37,2013-04-21 11:45:00,
2013-04-21 13:00:00,48.4,42.2,29.88,West,261,7.0,18.0,79,0.00,CLR,,0.00,WeatherDisplay:10.37,2013-04-21 12:00:00,
2013-04-21 13:15:00,50.2,39.3,29.83,West,270,14.0,20.0,66,0.00,CLR,,0.01,WeatherDisplay:10.37,2013-04-21 12:15:00,
2013-04-21 13:30:00,49.4,39.7,29.83,WSW,257,12.0,20.0,69,0.00,CLR,,0.01,WeatherDisplay:10.37,2013-04-21 12:30:00,
2013-04-21 13:45:00,48.7,40.1,29.83,West,266,12.0,22.0,72,0.00,CLR,,0.01,WeatherDisplay:10.37,2013-04-21 12:45:00,
2013-04-21 14:00:00,48.1,40.5,29.83,WSW,250,7.0,19.0,75,0.00,CLR,,0.01,WeatherDisplay:10.37,2013-04-21 13:00:00,
2013-04-21 14:15:00,48.0,40.8,29.84,West,268,8.0,15.0,76,0.00,CLR,,0.01,WeatherDisplay:10.37,2013-04-21 13:15:00,
2013-04-21 14:30:00,48.6,41.0,29.84,WSW,258,8.0,18.0,75,0.00,CLR,,0.01,WeatherDisplay:10.37,2013-04-21 13:30:00,
2013-04-21 14:45:00,48.6,40.3,29.83,West,259,9.0,17.0,73,0.00,CLR,,0.01,WeatherDisplay:10.37,2013-04-21 13:45:00,
2013-04-21 15:00:00,48.3,39.7,29.83,WSW,257,6.0,19.0,72,0.00,CLR,,0.01,WeatherDisplay:10.37,2013-04-21 14:00:00,
2013-04-21 15:15:00,47.5,39.6,29.84,West,259,7.0,13.0,74,0.00,CLR,,0.01,WeatherDisplay:10.37,2013-04-21 14:15:00,
2013-04-21 15:30:00,47.1,38.9,29.84,West,259,6.0,15.0,73,0.00,CLR,,0.01,WeatherDisplay:10.37,2013-04-21 14:30:00,
2013-04-21 15:45:00,46.7,39.2,29.85,West,261,8.0,15.0,75,0.00,CLR,,0.01,WeatherDisplay:10.37,2013-04-21 14:45:00,
2013-04-21 16:00:00,46.4,39.2,29.85,WSW,258,10.0,15.0,76,0.00,CLR,,0.01,WeatherDisplay:10.37,2013-04-21 15:00:00,
2013-04-21 16:15:00,46.2,39.4,29.84,WSW,255,8.0,18.0,77,0.00,CLR,,0.01,WeatherDisplay:10.37,2013-04-21 15:15:00,
2013-04-21 21:45:00,45.5,39.4,29.84,WSW,243,5.0,12.0,79,0.00,CLR,,0.01,WeatherDisplay:10.37,2013-04-21 20:45:00,
2013-04-21 22:00:00,45.3,39.2,29.84,WSW,254,9.0,16.0,79,0.00,CLR,,0.01,WeatherDisplay:10.37,2013-04-21 21:00:00,
2013-04-21 22:15:00,45.3,39.5,29.84,WSW,245,8.0,16.0,80,0.00,CLR,,0.01,WeatherDisplay:10.37,2013-04-21 21:15:00,
2013-04-21 22:30:00,44.9,39.1,29.84,WSW,248,6.0,15.0,80,0.00,CLR,,0.01,WeatherDisplay:10.37,2013-04-21 21:30:00,
2013-04-21 22:45:00,44.5,39.0,29.84,WSW,248,7.0,16.0,81,0.00,CLR,,0.01,WeatherDisplay:10.37,2013-04-21 21:45:00,
2013-04-21 23:00:00,44.3,39.2,29.84,WSW,251,9.0,15.0,82,0.00,CLR,,0.01,WeatherDisplay:10.37,2013-04-21 22:00:00,
2013-04-21 23:15:00,44.0,39.2,29.84,WSW,253,7.0,13.0,83,0.00,CLR,,0.01,WeatherDisplay:10.37,2013-04-21 22:15:00,
2013-04-21 23:30:00,43.8,39.0,29.84,WSW,243,3.0,10.0,83,0.00,CLR,,0.01,WeatherDisplay:10.37,2013-04-21 22:30:00,
2013-04-21 23:45:00,43.8,38.9,29.83,WSW,247,6.0,12.0,83,0.00,CLR,,0.01,WeatherDisplay:10.37,2013-04-21 22:45:00,